Terminal Aerodrome Forecast
Issued by NWS Mt. Holly, NJ

Home | Current Version | Previous Version | Text Only | Print | Product List | Glossary On
Versions: 1 2 3 4 5 6 7 8 9 10 11 12 13 14 15 16 17 18 19 20 21 22 23 24 25 26 27 28 29
708
FTUS41 KPHI 120524
TAFTTN
TAF
KTTN 120524Z 1206/1306 29006KT P6SM FEW150
     FM121700 24007KT P6SM FEW040 BKN100
     FM130200 26007KT 4SM -SHSN BKN030=

USA.gov is the U.S. government's official web portal to all federal, state and local government web resources and services.